This demonstration page uses our WeatherBlox Daily Observations layout. Learn more.

39.92423, -83.80882

Hourly Observations for May 18, 2019

Temp ( °F °C ) Dew Point ( °F °C ) Humidity (%) Winds ( mph kmh ) Pressure ( in mb ) Visibility ( mi km ) Precip ( " mm )
12:56 am 00:56 Clear 65 18.3 65 18.3 100 100 SSE 3 6 29.93 1013 10 16.0934 0 0
1:56 am 01:56 Clear 65 18.3 64 17.8 97 97 ESE 3 6 29.92 1013 10 16.0934 0 0
2:56 am 02:56 Clear 64 17.8 64 17.8 100 100 SSE 6 9 29.91 1013 10 16.0934 0 0
3:56 am 03:56 Clear 62 16.7 62 16.7 100 100 Calm 29.91 1013 7 11.26538 0 0
4:56 am 04:56 Clear 64 17.8 64 17.8 100 100 S 5 7 29.91 1013 10 16.0934 0 0
5:56 am 05:56 Mostly Clear 64 17.8 64 17.8 100 100 SSW 7 11 29.92 1013 10 16.0934 0 0
6:56 am 06:56 Mostly Sunny 65 18.3 63 17.2 93 93 SSW 9 15 29.93 1014 10 16.0934 0 0
7:56 am 07:56 Partly Cloudy 66 18.9 64 17.8 93 93 SW 8 13 29.95 1014 10 16.0934 0 0
8:56 am 08:56 Sunny 71 21.7 66 18.9 84 84 SW 8 13 29.96 1014 10 16.0934 0 0
9:56 am 09:56 Sunny 76 24.4 66 18.9 72 72 WSW 12 19 29.96 1015 10 16.0934 0 0
10:56 am 10:56 Sunny 79 26.1 67 19.4 67 67 W 14 22 29.96 1015 10 16.0934 0 0
11:56 am 11:56 Mostly Sunny 81 27.2 67 19.4 62 62 WSW 12 19 29.95 1014 10 16.0934 0 0
12:56 pm 12:56 Mostly Sunny 82 27.8 66 18.9 58 58 W 12 19 29.93 1014 10 16.0934 0 0
1:56 pm 13:56 Partly Cloudy 83 28.3 64 17.8 53 53 SW 15 24 29.92 1013 10 16.0934 0 0
2:56 pm 14:56 Mostly Sunny 84 28.9 63 17.2 49 49 SW 14 22 29.9 1013 10 16.0934 0 0
3:56 pm 15:56 Partly Cloudy 85 29.4 65 18.3 51 51 SSW 10 17 29.88 1012 10 16.0934 0 0
4:56 pm 16:56 Partly Cloudy 85 29.4 66 18.9 53 53 SW 13 20 29.87 1012 10 16.0934 0 0
5:56 pm 17:56 Partly Cloudy 83 28.3 63 17.2 51 51 SSW 14 22 29.88 1012 10 16.0934 0 0
6:56 pm 18:56 Mostly Sunny 82 27.8 64 17.8 55 55 SSW 10 17 29.87 1012 10 16.0934 0 0
7:56 pm 19:56 Sunny 81 27.2 64 17.8 57 57 SSW 5 7 29.87 1012 10 16.0934 0 0
8:56 pm 20:56 Clear 78 25.6 64 17.8 62 62 SSW 6 9 29.87 1011 10 16.0934 0 0
9:56 pm 21:56 Clear 75 23.9 63 17.2 66 66 S 6 9 29.87 1011 10 16.0934 0 0
10:56 pm 22:56 Clear 74 23.3 64 17.8 71 71 S 6 9 29.88 1012 10 16.0934 0 0
11:56 pm 23:56 Clear 73 22.8 65 18.3 76 76 S 6 9 29.88 1012 10 16.0934 0 0

Powered by AerisWeather